[[{"header":{"parameterUnit":"m.s-1","parameterCategory":2,"la1":30.2991,"la2":30.254,"lo1":-89.0895,"lo2":-89.0444,"dy":0.0017,"dx":0.0017,"nx":28,"ny":28,"refTime":"2023-06-21T21:00:00:Z","depth":"0","parameterNumber":2,"parameterNumberName":"U-component_of_CURRENTS"},"data":[0,0,0,0,0,0,0,0,0,0,0,0,0,0,0,0,0,0,0,0,0,0,0,0,0,0,0,0,0,0,0,0,0,0,0,0,0,0,0,0,0,0,0,0,0,0,0,0,0,0,0,0,0,0,0,0,0,0,0.0765,0.0767,0,0.0854,0.0853,0.0853,0.085,0.085,0.0851,0.0851,0.0825,0.0824,0.0823,0,0,0,0,0,0,0,0,0,0,0,0,0,0.0558,0.0561,0.0764,0.0767,0.077,0.0854,0.0853,0.0853,0.085,0.085,0.0851,0.0852,0.0826,0.0824,0.0823,0,0,0,0,0,0,0,0,0,0,0,0,0,0.063,0.0561,0.0764,0.0793,0.0797,0.0854,0.0853,0.0852,0.085,0.085,0.0851,0.0852,0.0826,0.0824,0.0823,0.0797,0,0,0.0817,0.0817,0,0,0,0,0,0,0,0,0.0626,0.0635,0.0785,0.0791,0.0797,0.0858,0.0772,0.0835,0.0849,0.081,0.0851,0.0852,0.0837,0.0835,0.0825,0.0796,0.0795,0.0817,0.0816,0.0816,0.0815,0,0,0,0,0,0,0,0.0621,0.0631,0.0781,0.0789,0.0796,0.0791,0.08,0.0783,0.0802,0.0813,0.0818,0.0858,0.0837,0.0826,0.0824,0.0795,0.0817,0.0816,0.0815,0.0814,0.0917,0.092,0,0,0,0,0,0,0.0649,0.0627,0.0778,0.0785,0.0732,0.0796,0.0805,0.0822,0.0805,0.0809,0.0857,0.0858,0.0829,0.0826,0.0823,0.0932,0.0816,0.0814,0.0813,0.0913,0.0917,0.0921,0,0,0,0,0,0,0.0644,0.066,0.0775,0.0724,0.0741,0.0801,0.0819,0.0824,0.0843,0.0843,0.0841,0.0877,0.0829,0.0826,0.0851,0.0926,0.0813,0.0812,0.0908,0.0914,0.0919,0.1061,0,0,0,0,0,0,0.0636,0.0657,0.0694,0.0725,0.0746,0.0826,0.082,0.0826,0.0874,0.0876,0.0859,0.0855,0.083,0.0854,0.0849,0.0922,0.081,0.0904,0.0911,0.0918,0.1052,0.1071,0.1087,0,0,0,0,0,0.0628,0.0726,0.0694,0.0715,0.0788,0.0829,0.0836,0.0869,0.0875,0.0885,0.0893,0.0857,0.0897,0.0854,0.0848,0.0922,0.09,0.0909,0.0917,0.1044,0.1067,0.1087,0,0,0,0,0,0,0.0664,0.0737,0.0703,0.0813,0.0811,0.0837,0.0884,0.0885,0.0896,0.0894,0.0881,0.0879,0.0949,0.0909,0.0863,0.0978,0.0902,0.091,0.1001,0.1022,0.104,0.1126,0.0809,0,0,0,0,0,0.0682,0.0762,0.0777,0.0851,0.0853,0.0851,0.0882,0.0878,0.0898,0.0903,0.0908,0.0923,0.0973,0.0974,0.0994,0.1022,0.1073,0.1076,0.1094,0.1109,0.118,0.1251,0.1282,0.0949,0.0949,0.0949,0,0,0.072,0.0769,0.0814,0.0863,0.0855,0.091,0.0867,0.0904,0.0972,0.0897,0.0989,0.0985,0.1001,0.1066,0.1092,0.1038,0.1249,0.112,0.1133,0.1197,0.1263,0.1296,0.1325,0.0955,0.0954,0.0953,0,0,0.0815,0.0851,0.0918,0.0936,0.0951,0.0967,0.0984,0.0994,0.1014,0.1075,0.1076,0.1134,0.1156,0.1209,0.1238,0.1365,0.1355,0.1347,0.1485,0.1552,0.158,0.1605,0.1787,0.1827,0.1336,0.1336,0.1336,0,0.085,0.0937,0.0939,0.0994,0.1067,0.1006,0.1085,0.1099,0.1127,0.1148,0.113,0.1253,0.126,0.1393,0.1459,0.1415,0.1466,0.1393,0.1576,0.1601,0.1625,0.1804,0.1847,0.1344,0.1343,0.1342,0.1341,0,0.0969,0.1041,0.1086,0.1152,0.1217,0.1272,0.13,0.1335,0.1359,0.1352,0.1459,0.1483,0.1549,0.1573,0.1569,0.1737,0.1733,0.1601,0.1519,0.1667,0.1848,0.189,0.1355,0.1352,0.135,0.1348,0,0,0.108,0.1151,0.1181,0.1221,0.1313,0.1373,0.1496,0.1566,0.1654,0.1644,0.1769,0.1872,0.1817,0.1856,0.1838,0.1926,0.2172,0.1845,0.1845,0.2031,0.2407,0.2354,0.2394,0.2028,0.2034,0.2039,0.2494,0,0.1166,0.1288,0.1351,0.1512,0.1572,0.162,0.1762,0.1812,0.1851,0.1931,0.192,0.2012,0.1934,0.1984,0.2053,0.2121,0.2276,0.2069,0.2237,0.2247,0.2179,0.2437,0.2477,0.2876,0.2534,0.2541,0.2546,0,0.1311,0.1361,0.151,0.1674,0.1717,0.1827,0.2043,0.2157,0.2217,0.2235,0.2261,0.2212,0.2347,0.2252,0.2479,0.2326,0.243,0.2495,0.2508,0.2444,0.2269,0.2659,0.2965,0.2879,0.261,0.2604,0.26,0,0.1423,0.1536,0.1662,0.1716,0.186,0.1968,0.209,0.2218,0.2316,0.2412,0.2467,0.2514,0.2603,0.2668,0.2736,0.2623,0.3004,0.2831,0.2931,0.2931,0.3003,0.2996,0.3249,0.3091,0.309,0.3089,0.3087,0,0.1585,0.1701,0.169,0.1776,0.1921,0.2046,0.2251,0.2361,0.2508,0.2604,0.2602,0.271,0.2708,0.2834,0.2868,0.3047,0.3097,0.3084,0.3059,0.3059,0.3051,0.2998,0.2939,0.3106,0.3102,0.3099,0.3096,0,0.1768,0.1759,0.1875,0.196,0.1976,0.2109,0.2299,0.2433,0.2596,0.2746,0.2775,0.2911,0.3085,0.3123,0.3319,0.3271,0.3352,0.3474,0.3529,0.35,0.3401,0.3349,0.3378,0.3329,0.3681,0.3682,0.3684,0,0.1885,0.1944,0.1975,0.2003,0.2044,0.2182,0.2277,0.2437,0.2551,0.2846,0.2904,0.3144,0.3234,0.3533,0.3568,0.3712,0.353,0.382,0.3596,0.3521,0.3446,0.3113,0.3045,0.3823,0.3825,0.3827,0.3828,0,0.2087,0.2081,0.2149,0.2144,0.2193,0.2251,0.2377,0.2436,0.2641,0.2779,0.2988,0.3114,0.3447,0.3568,0.3771,0.3853,0.364,0.3857,0.3773,0.3628,0.3301,0.3197,0.3458,0.3846,0.3844,0.3843,0.3842,0.3841,0.2228,0.2266,0.2283,0.2285,0.2316,0.2302,0.2347,0.2427,0.2549,0.2727,0.2931,0.3124,0.3453,0.3727,0.3816,0.3965,0.377,0.3899,0.3885,0.358,0.339,0.3724,0.401,0.401,0.4009,0.4008,0.4008,0,0.2324,0.2342,0.2409,0.2371,0.2377,0.2359,0.2397,0.2413,0.2451,0.2644,0.2801,0.3105,0.3385,0.3654,0.3916,0.3934,0.3775,0.3935,0.3558,0.3522,0.3903,0.3759,0.4006,0.4006,0.4006,0.4006,0.4006,0.4006,0.2369,0.2422,0.2403,0.2365,0.2353,0.2309,0.2283,0.228,0.2383,0.2515,0.2646,0.2817,0.3108,0.358,0.3791,0.3856,0.3612,0.3553,0.3433,0.3795,0.3788,0.3781,0.363,0.3846,0.3846,0.2933,0.2927,0.2923]},{"header":{"parameterUnit":"m.s-1","parameterCategory":2,"la1":30.2991,"la2":30.254,"lo1":-89.0895,"lo2":-89.0444,"dy":0.0017,"dx":0.0017,"nx":28,"ny":28,"refTime":"2023-06-21T21:00:00:Z","depth":"0","parameterNumber":3,"parameterNumberName":"V-component_of_CURRENTS"},"data":[0,0,0,0,0,0,0,0,0,0,0,0,0,0,0,0,0,0,0,0,0,0,0,0,0,0,0,0,0,0,0,0,0,0,0,0,0,0,0,0,0,0,0,0,0,0,0,0,0,0,0,0,0,0,0,0,0,0,0.0643,0.0645,0,0.0742,0.0743,0.0743,0.0807,0.0808,0.0809,0.081,0.0759,0.0756,0.0754,0,0,0,0,0,0,0,0,0,0,0,0,0,0.0525,0.0526,0.0643,0.0645,0.0647,0.0742,0.0743,0.0743,0.0807,0.0808,0.0809,0.081,0.0759,0.0757,0.0754,0,0,0,0,0,0,0,0,0,0,0,0,0,0.0589,0.0526,0.0643,0.0695,0.0701,0.0742,0.0743,0.0744,0.0806,0.0808,0.0809,0.0811,0.076,0.0757,0.0754,0.0704,0,0,0.0743,0.0742,0,0,0,0,0,0,0,0,0.0585,0.0592,0.0685,0.0691,0.0698,0.0769,0.0683,0.0725,0.0806,0.0759,0.081,0.0811,0.0751,0.0749,0.0757,0.0701,0.0699,0.0743,0.0741,0.0739,0.0739,0,0,0,0,0,0,0,0.0581,0.0589,0.0676,0.0687,0.0695,0.0719,0.0728,0.0691,0.0738,0.0764,0.077,0.0791,0.0753,0.076,0.0756,0.0698,0.0743,0.074,0.0738,0.0737,0.0659,0.0659,0,0,0,0,0,0,0.0579,0.0584,0.0673,0.068,0.0651,0.072,0.0731,0.074,0.0742,0.0747,0.0789,0.0793,0.0766,0.076,0.0754,0.076,0.074,0.0736,0.0734,0.0659,0.0659,0.0659,0,0,0,0,0,0,0.0576,0.0585,0.0669,0.064,0.0653,0.0721,0.073,0.0741,0.0764,0.0765,0.0766,0.0804,0.0766,0.0759,0.0724,0.0756,0.0735,0.0732,0.0659,0.0659,0.0659,0.073,0,0,0,0,0,0,0.0572,0.0583,0.0593,0.0639,0.0655,0.0682,0.073,0.0742,0.0777,0.0783,0.0776,0.0774,0.0767,0.073,0.0721,0.0751,0.0729,0.0659,0.0659,0.0659,0.0727,0.0732,0.0736,0,0,0,0,0,0.0567,0.062,0.0593,0.0605,0.0665,0.0681,0.0689,0.0739,0.0776,0.0768,0.0774,0.0774,0.0725,0.0726,0.0716,0.0746,0.0659,0.0659,0.0659,0.0725,0.0731,0.0736,0,0,0,0,0,0,0.0582,0.0632,0.0604,0.0666,0.0648,0.0694,0.0709,0.074,0.0742,0.0743,0.0755,0.0749,0.074,0.0716,0.0718,0.0722,0.0699,0.0697,0.0753,0.0758,0.0762,0.0861,0.0726,0,0,0,0,0,0.0578,0.0626,0.0626,0.0662,0.0641,0.066,0.068,0.0697,0.0711,0.0717,0.0729,0.0728,0.0729,0.0721,0.0704,0.0685,0.0684,0.0702,0.0706,0.071,0.0782,0.0747,0.0756,0.0659,0.0659,0.0659,0,0,0.06,0.0628,0.0657,0.0666,0.0649,0.0669,0.0674,0.0683,0.0752,0.0703,0.0776,0.0732,0.0724,0.0725,0.0719,0.071,0.0734,0.071,0.0714,0.0786,0.0748,0.0758,0.0767,0.0659,0.0659,0.0659,0,0,0.0639,0.0655,0.067,0.0665,0.0643,0.0674,0.0675,0.0691,0.0733,0.0763,0.0762,0.0747,0.0744,0.0758,0.0766,0.0778,0.0755,0.0751,0.0858,0.082,0.0829,0.0837,0.0841,0.0849,0.0756,0.0756,0.0756,0,0.0649,0.0682,0.0672,0.0669,0.0719,0.0683,0.0718,0.075,0.0776,0.0812,0.0795,0.0831,0.0792,0.0849,0.0857,0.0799,0.0774,0.0839,0.083,0.0837,0.0845,0.0846,0.0854,0.0759,0.0759,0.0758,0.0758,0,0.0686,0.0704,0.0709,0.0723,0.0763,0.0782,0.0821,0.0862,0.0913,0.0933,0.0981,0.094,0.0962,0.0939,0.0912,0.0945,0.091,0.0834,0.0826,0.0859,0.0858,0.0865,0.0764,0.0763,0.0762,0.0761,0,0,0.0764,0.074,0.0749,0.0768,0.0809,0.0859,0.0963,0.1041,0.1127,0.112,0.1213,0.1216,0.115,0.1158,0.1096,0.1086,0.1085,0.099,0.0986,0.1015,0.1026,0.1016,0.1022,0.0981,0.0983,0.0984,0.1003,0,0.0788,0.0804,0.0838,0.0931,0.0946,0.1014,0.1142,0.1211,0.1255,0.1304,0.1274,0.1299,0.1244,0.1231,0.1209,0.11,0.1108,0.1091,0.0976,0.0976,0.0977,0.1032,0.1102,0.1126,0.1009,0.1011,0.1011,0,0.0857,0.0853,0.0908,0.1046,0.107,0.1155,0.137,0.1483,0.1524,0.1543,0.1539,0.1454,0.1448,0.1367,0.1305,0.128,0.1191,0.1127,0.1123,0.1116,0.098,0.1073,0.1143,0.0981,0.1022,0.1021,0.102,0,0.0956,0.0981,0.1046,0.1076,0.1173,0.128,0.1412,0.1527,0.166,0.1668,0.171,0.1627,0.1636,0.15,0.1343,0.1306,0.1254,0.116,0.1107,0.1104,0.1157,0.1156,0.1088,0.1156,0.1156,0.1156,0.1156,0,0.1053,0.1117,0.1071,0.1115,0.1241,0.1351,0.1552,0.1653,0.1792,0.1912,0.1823,0.1914,0.1671,0.1575,0.139,0.1286,0.1284,0.1188,0.1123,0.1179,0.118,0.1033,0.096,0.1156,0.1156,0.1156,0.1156,0,0.1177,0.1124,0.1193,0.1252,0.1273,0.1398,0.1646,0.1785,0.1942,0.2095,0.2105,0.2132,0.2063,0.1812,0.1602,0.1418,0.12,0.1211,0.1314,0.1262,0.1063,0.0994,0.0931,0.0941,0.1181,0.1181,0.1182,0,0.1243,0.1272,0.1283,0.1303,0.1321,0.1484,0.1601,0.1805,0.1945,0.226,0.231,0.2346,0.238,0.211,0.174,0.1433,0.1297,0.1299,0.1261,0.1121,0.0993,0.0912,0.092,0.1352,0.1353,0.1354,0.1355,0,0.1397,0.1387,0.141,0.1422,0.148,0.1598,0.1774,0.1886,0.2152,0.2304,0.2551,0.265,0.252,0.2264,0.1863,0.1667,0.1243,0.1318,0.1139,0.1137,0.1083,0.1037,0.1279,0.1366,0.1365,0.1364,0.1364,0.1363,0.1534,0.1534,0.1549,0.1556,0.1635,0.1735,0.1855,0.1989,0.221,0.2463,0.264,0.2832,0.264,0.2168,0.1854,0.1353,0.137,0.1206,0.1142,0.1076,0.1075,0.1371,0.1382,0.1381,0.1381,0.138,0.1379,0,0.1658,0.1633,0.1703,0.171,0.1821,0.1827,0.1989,0.2099,0.2254,0.2466,0.2687,0.2844,0.2479,0.2123,0.1463,0.1141,0.1081,0.1015,0.092,0.0946,0.1182,0.1176,0.1184,0.1184,0.1184,0.1184,0.1185,0.1185,0.1698,0.1736,0.1709,0.184,0.1893,0.2043,0.2108,0.2194,0.2356,0.2626,0.2811,0.3035,0.2931,0.1808,0.1051,0.0909,0.0703,0.0687,0.059,0.0714,0.0726,0.0737,0.071,0.0621,0.062,0.042,0.0417,0.0415]}],[{"header":{"parameterUnit":"m.s-1","parameterCategory":2,"la1":30.2991,"la2":30.254,"lo1":-89.0895,"lo2":-89.0444,"dy":0.0017,"dx":0.0017,"nx":28,"ny":28,"refTime":"2023-06-21T21:00:00:Z","depth":"2","parameterNumber":2,"parameterNumberName":"U-component_of_CURRENTS"},"data":[0,0,0,0,0,0,0,0,0,0,0,0,0,0,0,0,0,0,0,0,0,0,0,0,0,0,0,0,0,0,0,0,0,0,0,0,0,0,0,0,0,0,0,0,0,0,0,0,0,0,0,0,0,0,0,0,0,0,-0.0365,-0.0366,0,-0.0446,-0.0447,-0.0449,-0.0527,-0.0528,-0.0528,-0.0529,-0.0581,-0.0581,-0.0582,0,0,0,0,0,0,0,0,0,0,0,0,0,-0.0323,-0.0324,-0.0365,-0.0366,-0.0366,-0.0446,-0.0447,-0.0449,-0.0527,-0.0528,-0.0529,-0.0529,-0.058,-0.0581,-0.0582,0,0,0,0,0,0,0,0,0,0,0,0,0,-0.0372,-0.0324,-0.0365,-0.0411,-0.0415,-0.0445,-0.0448,-0.045,-0.0527,-0.0528,-0.0529,-0.0529,-0.058,-0.0581,-0.0583,-0.0576,0,0,-0.0587,-0.0587,0,0,0,0,0,0,0,0,-0.0369,-0.0374,-0.0404,-0.0408,-0.0412,-0.0472,-0.0451,-0.0489,-0.0527,-0.0491,-0.0529,-0.053,-0.0537,-0.0542,-0.0565,-0.0579,-0.0581,-0.0587,-0.0588,-0.0588,-0.0589,0,0,0,0,0,0,0,-0.0365,-0.0371,-0.0403,-0.0404,-0.0409,-0.0442,-0.045,-0.046,-0.0513,-0.0494,-0.0498,-0.0498,-0.0541,-0.0563,-0.0566,-0.0582,-0.0587,-0.0588,-0.0589,-0.059,-0.0543,-0.0541,0,0,0,0,0,0,-0.0341,-0.0367,-0.04,-0.0405,-0.0386,-0.0441,-0.045,-0.0457,-0.0514,-0.0521,-0.0497,-0.0501,-0.056,-0.0564,-0.0568,-0.0434,-0.0588,-0.059,-0.059,-0.0545,-0.0543,-0.054,0,0,0,0,0,0,-0.034,-0.0343,-0.0397,-0.0383,-0.0392,-0.044,-0.0448,-0.0458,-0.0494,-0.0515,-0.0524,-0.0522,-0.0561,-0.0566,-0.0577,-0.0442,-0.059,-0.0592,-0.0548,-0.0544,-0.0541,-0.025,0,0,0,0,0,0,-0.0338,-0.0342,-0.035,-0.0382,-0.0391,-0.0417,-0.0447,-0.0459,-0.0488,-0.0495,-0.0539,-0.0544,-0.0562,-0.0574,-0.0578,-0.0446,-0.0593,-0.055,-0.0546,-0.0542,-0.0262,-0.0237,-0.0216,0,0,0,0,0,-0.0337,-0.0352,-0.035,-0.0354,-0.0397,-0.0416,-0.0425,-0.0466,-0.0489,-0.0502,-0.0525,-0.0544,-0.0551,-0.0575,-0.0579,-0.0444,-0.0552,-0.0547,-0.0543,-0.0272,-0.0242,-0.0216,0,0,0,0,0,0,-0.0339,-0.0361,-0.0361,-0.0381,-0.0391,-0.0427,-0.0447,-0.0468,-0.0502,-0.0513,-0.0537,-0.0543,-0.0475,-0.0543,-0.0568,-0.043,-0.0546,-0.0542,-0.0339,-0.0311,-0.0288,-0.0468,-0.0594,0,0,0,0,0,-0.0336,-0.0356,-0.0366,-0.038,-0.0383,-0.0413,-0.043,-0.0453,-0.0479,-0.0497,-0.052,-0.0527,-0.0458,-0.0459,-0.0447,-0.0406,-0.0447,-0.0325,-0.0301,-0.0281,-0.0436,-0.0318,-0.0297,-0.0525,-0.0525,-0.0525,0,0,-0.0346,-0.0353,-0.0369,-0.0381,-0.0396,-0.0399,-0.0428,-0.0454,-0.0446,-0.0493,-0.0501,-0.0447,-0.0432,-0.0343,-0.032,-0.0386,-0.0208,-0.0275,-0.0255,-0.0428,-0.0311,-0.0288,-0.0268,-0.0522,-0.0523,-0.0523,0,0,-0.0306,-0.0371,-0.0333,-0.037,-0.0377,-0.0406,-0.0409,-0.0439,-0.0443,-0.0414,-0.0403,-0.0315,-0.0283,-0.0224,-0.0181,-0.0054,-0.0074,-0.0015,-0.005,0.0078,0.0097,0.0113,0.0229,0.0252,-0.0016,-0.0015,-0.0015,0,-0.0293,-0.0272,-0.0328,-0.031,-0.0357,-0.0403,-0.0396,-0.04,-0.0428,-0.0346,-0.0392,-0.0264,-0.0215,-0.0081,-0.004,0.001,0.0029,-0.0117,0.0113,0.0126,0.0137,0.025,0.0272,-0.0001,-0.0002,-0.0004,-0.0005,0,-0.0252,-0.0228,-0.0228,-0.0229,-0.0289,-0.0312,-0.034,-0.0344,-0.0329,-0.0232,-0.011,-0.0109,0.0009,0.0064,0.0041,0.0166,0.0149,0.0167,0.0057,0.0179,0.0291,0.0309,0.002,0.0015,0.0011,0.0007,0,0,-0.0216,-0.0184,-0.0182,-0.0179,-0.0274,-0.0319,-0.0304,-0.0218,-0.0109,-0.0105,0.0056,0.0131,0.02,0.022,0.023,0.0202,0.0414,0.0164,0.0165,0.0296,0.0667,0.0501,0.0504,0.0485,0.0486,0.0487,0.0766,0,-0.014,-0.0048,-0.0111,-0.0118,-0.0098,-0.0215,-0.0203,-0.0143,-0.0015,0.0146,0.0208,0.0386,0.0262,0.0348,0.0335,0.0422,0.0441,0.0329,0.0494,0.0496,0.0353,0.0511,0.0482,0.0706,0.0782,0.0785,0.0787,0,-0.0099,-0.0026,0.0036,-0.0019,-0.0039,-0.0065,-0.0064,-0.0066,0.0185,0.0292,0.0457,0.0608,0.0685,0.0518,0.0617,0.0555,0.0577,0.0533,0.0551,0.0236,0.0354,0.0562,0.0734,0.0815,0.0813,0.0811,0.0809,0,-0.0083,0.0009,0.0064,0.0022,-0.0004,-0.0004,-0.006,0.009,0.0111,0.0434,0.0533,0.0773,0.077,0.0866,0.088,0.0817,0.0892,0.093,0.0756,0.0752,0.0649,0.0627,0.091,0.091,0.0909,0.0908,0.0908,0,-0.0071,-0.0035,0.0125,0.0089,0.0181,0.0062,0.0134,0.0168,0.0247,0.0342,0.0606,0.0615,0.0799,0.0936,0.1002,0.0936,0.1109,0.0689,0.0785,0.0761,0.0746,0.0714,0.0687,0.0919,0.0917,0.0915,0.0913,0,-0.0114,0.0008,0.0035,0.0096,0.0186,0.018,0.0135,0.0144,0.0216,0.0304,0.0387,0.0533,0.0677,0.0876,0.1028,0.0991,0.1078,0.0986,0.0915,0.0984,0.0833,0.0818,0.092,0.0916,0.0912,0.0909,0.0907,0,-0.0151,-0.0092,0.0023,0.0081,0.0128,0.0188,0.0184,0.0177,0.0153,0.02,0.0185,0.0363,0.0491,0.0672,0.0785,0.1015,0.0944,0.093,0.0735,0.0736,0.0823,0.0814,0.0804,0.0836,0.0833,0.0831,0.0829,0,-0.0246,-0.02,-0.0176,-0.0003,0.0051,0.0087,0.0092,0.009,0.0025,0.0084,0.0109,0.0251,0.0354,0.0551,0.0704,0.0763,0.095,0.0866,0.1023,0.0747,0.0654,0.0738,0.0735,0.0808,0.081,0.0812,0.0813,0.0814,-0.035,-0.0333,-0.0265,-0.0119,-0.0061,-0.0031,-0.0017,-0.0049,-0.0047,0.0036,0.0078,0.023,0.0327,0.0545,0.0637,0.0678,0.0666,0.0654,0.0666,0.0679,0.0527,0.0423,0.0511,0.0511,0.0512,0.0512,0.0512,0,-0.0425,-0.0377,-0.0363,-0.022,-0.0241,-0.0127,-0.0107,-0.0114,-0.0061,0.0065,0.0187,0.0267,0.0394,0.0503,0.0567,0.0548,0.0576,0.0476,0.0581,0.06,0.0617,0.0465,0.0432,0.0432,0.0432,0.0432,0,0,-0.0436,-0.0419,-0.0397,-0.034,-0.0279,-0.0231,-0.02,-0.0139,-0.003,0.0115,0.026,0.0428,0.0493,0.0506,0.0503,0.0515,0.0541,0.0451,0.0515,0.0659,0.0677,0.0711,0.0493,0,0,0,0,0]},{"header":{"parameterUnit":"m.s-1","parameterCategory":2,"la1":30.2991,"la2":30.254,"lo1":-89.0895,"lo2":-89.0444,"dy":0.0017,"dx":0.0017,"nx":28,"ny":28,"refTime":"2023-06-21T21:00:00:Z","depth":"2","parameterNumber":3,"parameterNumberName":"V-component_of_CURRENTS"},"data":[0,0,0,0,0,0,0,0,0,0,0,0,0,0,0,0,0,0,0,0,0,0,0,0,0,0,0,0,0,0,0,0,0,0,0,0,0,0,0,0,0,0,0,0,0,0,0,0,0,0,0,0,0,0,0,0,0,0,-0.0828,-0.0828,0,-0.0819,-0.0819,-0.0818,-0.0791,-0.079,-0.079,-0.0789,-0.056,-0.0555,-0.0549,0,0,0,0,0,0,0,0,0,0,0,0,0,-0.0793,-0.0794,-0.0828,-0.0828,-0.0827,-0.0819,-0.0819,-0.0818,-0.0791,-0.079,-0.0789,-0.0789,-0.0562,-0.0555,-0.0549,0,0,0,0,0,0,0,0,0,0,0,0,0,-0.0798,-0.0794,-0.0828,-0.0813,-0.0812,-0.0819,-0.0819,-0.0818,-0.0791,-0.079,-0.0789,-0.0789,-0.0564,-0.0556,-0.0548,-0.0512,0,0,-0.0522,-0.0519,0,0,0,0,0,0,0,0,-0.0798,-0.0799,-0.0815,-0.0814,-0.0813,-0.0806,-0.0723,-0.0705,-0.0791,-0.0798,-0.0789,-0.0788,-0.0623,-0.061,-0.0612,-0.0502,-0.0492,-0.0521,-0.0516,-0.0513,-0.051,0,0,0,0,0,0,0,-0.0798,-0.0799,-0.0823,-0.0815,-0.0814,-0.0798,-0.0798,-0.072,-0.071,-0.0797,-0.0796,-0.0796,-0.062,-0.062,-0.0606,-0.0488,-0.0522,-0.0514,-0.0509,-0.0506,-0.0318,-0.0318,0,0,0,0,0,0,-0.0803,-0.0799,-0.0824,-0.0823,-0.0804,-0.0799,-0.0799,-0.0808,-0.0716,-0.0703,-0.0797,-0.0795,-0.0635,-0.0616,-0.0597,-0.0455,-0.0513,-0.0505,-0.05,-0.0318,-0.0318,-0.0318,0,0,0,0,0,0,-0.0802,-0.0806,-0.0824,-0.0811,-0.0812,-0.0801,-0.0811,-0.0808,-0.0809,-0.0718,-0.0701,-0.08,-0.0634,-0.0609,-0.0526,-0.0449,-0.0501,-0.0494,-0.0318,-0.0318,-0.0318,-0.0229,0,0,0,0,0,0,-0.0802,-0.0806,-0.0821,-0.0812,-0.0813,-0.0825,-0.0812,-0.0809,-0.0811,-0.0808,-0.0715,-0.0693,-0.0631,-0.0539,-0.0517,-0.0438,-0.0487,-0.0318,-0.0318,-0.0318,-0.0232,-0.0226,-0.0221,0,0,0,0,0,-0.08,-0.0826,-0.0822,-0.0825,-0.0833,-0.0825,-0.0824,-0.0813,-0.0812,-0.0811,-0.0748,-0.0696,-0.0524,-0.0532,-0.0507,-0.0423,-0.0318,-0.0318,-0.0318,-0.0235,-0.0227,-0.0221,0,0,0,0,0,0,-0.0801,-0.0825,-0.0821,-0.0847,-0.0834,-0.082,-0.0831,-0.082,-0.0778,-0.0771,-0.0688,-0.0661,-0.0552,-0.0531,-0.0542,-0.0383,-0.0416,-0.0411,-0.0361,-0.0353,-0.0348,-0.0509,-0.048,0,0,0,0,0,-0.0813,-0.0854,-0.0841,-0.0862,-0.0861,-0.0848,-0.0848,-0.0834,-0.0796,-0.0781,-0.0705,-0.0633,-0.0537,-0.0484,-0.041,-0.0323,-0.0365,-0.0265,-0.0259,-0.0254,-0.0376,-0.0342,-0.0345,-0.0319,-0.0319,-0.0319,0,0,-0.0825,-0.0839,-0.0863,-0.0868,-0.0864,-0.0854,-0.0846,-0.0846,-0.0822,-0.0755,-0.0691,-0.0602,-0.0516,-0.0405,-0.0356,-0.0371,-0.0271,-0.0254,-0.0249,-0.0378,-0.0343,-0.0345,-0.0348,-0.0319,-0.0319,-0.0319,0,0,-0.08,-0.0873,-0.0853,-0.0879,-0.0872,-0.0874,-0.0875,-0.0846,-0.082,-0.0734,-0.068,-0.0588,-0.0432,-0.0376,-0.0318,-0.026,-0.0241,-0.0202,-0.0288,-0.0247,-0.025,-0.0253,-0.0252,-0.0256,-0.0198,-0.0197,-0.0197,0,-0.0788,-0.0789,-0.0843,-0.0832,-0.0876,-0.0883,-0.0873,-0.085,-0.0788,-0.0707,-0.07,-0.0537,-0.0427,-0.0348,-0.0324,-0.0242,-0.0253,-0.0291,-0.0239,-0.0244,-0.0249,-0.0248,-0.0253,-0.0193,-0.0194,-0.0194,-0.0194,0,-0.0766,-0.0758,-0.0767,-0.0776,-0.0825,-0.0842,-0.0844,-0.083,-0.0783,-0.0663,-0.0566,-0.0518,-0.0388,-0.0346,-0.0304,-0.0282,-0.0286,-0.0222,-0.0251,-0.0246,-0.0244,-0.0251,-0.0187,-0.0189,-0.019,-0.0191,0,0,-0.0749,-0.0735,-0.0738,-0.0747,-0.0825,-0.0862,-0.0855,-0.0775,-0.07,-0.0642,-0.0547,-0.045,-0.0376,-0.0336,-0.0309,-0.0374,-0.0339,-0.0341,-0.034,-0.0339,-0.0296,-0.0331,-0.0342,-0.0248,-0.025,-0.0252,-0.0258,0,-0.0692,-0.0619,-0.0686,-0.0709,-0.0698,-0.0809,-0.0828,-0.0771,-0.0633,-0.0518,-0.0484,-0.0347,-0.0371,-0.0324,-0.0365,-0.0312,-0.037,-0.035,-0.0314,-0.0317,-0.0344,-0.0356,-0.0297,-0.0304,-0.0266,-0.0267,-0.0268,0,-0.0685,-0.0619,-0.0568,-0.0671,-0.0699,-0.0748,-0.0806,-0.0812,-0.0631,-0.053,-0.0411,-0.0269,-0.0278,-0.0348,-0.0372,-0.0347,-0.0353,-0.0417,-0.0411,-0.0525,-0.037,-0.0318,-0.032,-0.0281,-0.028,-0.0279,-0.0279,0,-0.0688,-0.0624,-0.0578,-0.0622,-0.0678,-0.0733,-0.0827,-0.0729,-0.072,-0.0509,-0.0431,-0.0301,-0.0337,-0.0319,-0.0309,-0.0292,-0.0434,-0.0324,-0.043,-0.0429,-0.0434,-0.0432,-0.0452,-0.0452,-0.0452,-0.0452,-0.0452,0,-0.07,-0.0688,-0.0549,-0.0583,-0.0577,-0.0713,-0.0739,-0.0745,-0.0734,-0.0645,-0.0442,-0.0439,-0.0362,-0.0328,-0.0302,-0.0393,-0.0338,-0.0531,-0.0457,-0.0394,-0.0389,-0.0432,-0.043,-0.0452,-0.0452,-0.0452,-0.0452,0,-0.0752,-0.0642,-0.0631,-0.0615,-0.0577,-0.0637,-0.0792,-0.0815,-0.0802,-0.0732,-0.0688,-0.0552,-0.0476,-0.0425,-0.0417,-0.0435,-0.0457,-0.0532,-0.0501,-0.0429,-0.048,-0.0473,-0.0573,-0.0575,-0.0577,-0.0578,-0.0579,0,-0.0769,-0.071,-0.0648,-0.0618,-0.0608,-0.0654,-0.0719,-0.0811,-0.0821,-0.079,-0.0778,-0.0684,-0.0539,-0.0573,-0.0545,-0.0501,-0.0546,-0.0546,-0.0527,-0.0588,-0.0504,-0.0494,-0.0485,-0.0452,-0.0452,-0.0452,-0.0452,0,-0.0785,-0.0768,-0.0751,-0.0666,-0.0681,-0.0701,-0.0776,-0.0783,-0.0872,-0.0807,-0.0722,-0.0605,-0.0618,-0.0509,-0.0564,-0.0548,-0.0495,-0.055,-0.0583,-0.0451,-0.048,-0.0395,-0.0388,-0.0452,-0.0452,-0.0452,-0.0452,-0.0452,-0.0809,-0.0808,-0.0772,-0.0721,-0.0726,-0.0719,-0.0742,-0.0777,-0.0761,-0.0629,-0.0625,-0.0472,-0.0516,-0.0462,-0.0492,-0.0539,-0.0558,-0.0551,-0.0548,-0.0545,-0.0551,-0.0583,-0.0577,-0.0577,-0.0578,-0.0578,-0.0579,0,-0.076,-0.0775,-0.0806,-0.0755,-0.0809,-0.0769,-0.0748,-0.0735,-0.0617,-0.0504,-0.0376,-0.0335,-0.0305,-0.0343,-0.0401,-0.0497,-0.0474,-0.0512,-0.0432,-0.0433,-0.0434,-0.043,-0.0426,-0.0426,-0.0425,-0.0425,0,0,-0.0726,-0.0722,-0.0757,-0.0758,-0.0758,-0.0727,-0.0674,-0.0572,-0.0472,-0.0288,-0.0165,-0.0107,-0.022,-0.0228,-0.0331,-0.0352,-0.0375,-0.0369,-0.0483,-0.0377,-0.0375,-0.0451,-0.0447,0,0,0,0,0]}],[{"header":{"parameterUnit":"m.s-1","parameterCategory":2,"la1":30.2991,"la2":30.254,"lo1":-89.0895,"lo2":-89.0444,"dy":0.0017,"dx":0.0017,"nx":28,"ny":28,"refTime":"2023-06-21T21:00:00:Z","depth":"4","parameterNumber":2,"parameterNumberName":"U-component_of_CURRENTS"},"data":[0,0,0,0,0,0,0,0,0,0,0,0,0,0,0,0,0,0,0,0,0,0,0,0,0,0,0,0,0,0,0,0,0,0,0,0,0,0,0,0,0,0,0,0,0,0,0,0,0,0,0,0,0,0,0,0,0,0,-0.0325,-0.0325,0,-0.0311,-0.0311,-0.0311,-0.03,-0.0299,-0.0299,-0.0299,-0.0265,-0.0265,-0.0264,0,0,0,0,0,0,0,0,0,0,0,0,0,-0.0328,-0.0328,-0.0325,-0.0325,-0.0325,-0.0311,-0.0311,-0.0311,-0.03,-0.0299,-0.0299,-0.0299,-0.0265,-0.0265,-0.0264,0,0,0,0,0,0,0,0,0,0,0,0,0,-0.0323,-0.0328,-0.0326,-0.0317,-0.0316,-0.0311,-0.0311,-0.0311,-0.03,-0.0299,-0.0299,-0.0299,-0.0266,-0.0265,-0.0264,-0.0264,0,0,-0.026,-0.026,0,0,0,0,0,0,0,0,-0.0323,-0.0323,-0.0318,-0.0317,-0.0316,-0.0306,-0.0299,-0.0294,-0.03,-0.0307,-0.0299,-0.0299,-0.0276,-0.0274,-0.0274,-0.0262,-0.0261,-0.026,-0.026,-0.0259,-0.0259,0,0,0,0,0,0,0,-0.0323,-0.0323,-0.0321,-0.0318,-0.0317,-0.0308,-0.0307,-0.0298,-0.0294,-0.0306,-0.0305,-0.0302,-0.0276,-0.0276,-0.0273,-0.026,-0.026,-0.0259,-0.0259,-0.0258,-0.025,-0.025,0,0,0,0,0,0,-0.0324,-0.0324,-0.0321,-0.032,-0.0317,-0.0308,-0.0307,-0.031,-0.0295,-0.0292,-0.0302,-0.0301,-0.0277,-0.0275,-0.0272,-0.0266,-0.0259,-0.0258,-0.0258,-0.0249,-0.025,-0.025,0,0,0,0,0,0,-0.0324,-0.0324,-0.0322,-0.032,-0.0319,-0.0308,-0.0312,-0.031,-0.0312,-0.0291,-0.0288,-0.0306,-0.0277,-0.0274,-0.0266,-0.0264,-0.0258,-0.0257,-0.0249,-0.0249,-0.025,-0.0256,0,0,0,0,0,0,-0.0324,-0.0325,-0.0332,-0.0321,-0.0319,-0.0318,-0.0312,-0.031,-0.031,-0.0309,-0.0294,-0.029,-0.0277,-0.0268,-0.0265,-0.0263,-0.0256,-0.0248,-0.0249,-0.025,-0.0255,-0.0257,-0.0258,0,0,0,0,0,-0.0325,-0.0335,-0.0332,-0.0332,-0.0328,-0.0318,-0.0317,-0.0309,-0.0311,-0.031,-0.0303,-0.0291,-0.0271,-0.0268,-0.0264,-0.0261,-0.0248,-0.0249,-0.025,-0.0255,-0.0256,-0.0258,0,0,0,0,0,0,-0.0341,-0.0334,-0.0331,-0.0339,-0.0328,-0.0316,-0.0316,-0.0314,-0.0309,-0.0309,-0.0294,-0.029,-0.0283,-0.0276,-0.0273,-0.0263,-0.0258,-0.0259,-0.0263,-0.0265,-0.0266,-0.027,-0.0255,0,0,0,0,0,-0.0348,-0.0352,-0.034,-0.0345,-0.0341,-0.0331,-0.0329,-0.0322,-0.0314,-0.0312,-0.0301,-0.0293,-0.0285,-0.0278,-0.0269,-0.0263,-0.0259,-0.0261,-0.0262,-0.0263,-0.0266,-0.0259,-0.0259,-0.0253,-0.0253,-0.0253,0,0,-0.0357,-0.0351,-0.0355,-0.0348,-0.034,-0.0333,-0.0329,-0.0324,-0.0323,-0.0309,-0.0306,-0.0297,-0.0286,-0.0278,-0.0274,-0.027,-0.0264,-0.0265,-0.0265,-0.0268,-0.026,-0.026,-0.0261,-0.0254,-0.0254,-0.0253,0,0,-0.0362,-0.0369,-0.0368,-0.036,-0.0347,-0.034,-0.034,-0.0328,-0.033,-0.0324,-0.0316,-0.0308,-0.0295,-0.0285,-0.0279,-0.0285,-0.0273,-0.0284,-0.0289,-0.0282,-0.0282,-0.0282,-0.028,-0.028,-0.0282,-0.0282,-0.0282,0,-0.037,-0.0368,-0.0365,-0.0357,-0.0351,-0.0343,-0.0337,-0.0338,-0.0327,-0.0331,-0.0324,-0.031,-0.0298,-0.029,-0.0291,-0.0287,-0.0284,-0.0281,-0.0282,-0.0283,-0.0283,-0.0281,-0.0281,-0.0282,-0.0282,-0.0282,-0.0282,0,-0.0369,-0.0367,-0.0365,-0.0352,-0.0348,-0.0342,-0.0337,-0.0338,-0.0338,-0.0338,-0.0335,-0.0319,-0.0314,-0.0304,-0.0298,-0.0294,-0.0292,-0.0286,-0.0276,-0.0283,-0.0281,-0.0281,-0.0282,-0.0282,-0.0282,-0.0282,0,0,-0.0379,-0.0368,-0.0365,-0.0357,-0.0347,-0.0339,-0.0344,-0.0343,-0.0348,-0.0341,-0.0352,-0.0331,-0.0332,-0.0327,-0.0315,-0.03,-0.0297,-0.0294,-0.0293,-0.0289,-0.0286,-0.0217,-0.021,-0.0289,-0.0289,-0.0289,-0.0285,0,-0.0374,-0.0371,-0.0359,-0.0345,-0.0346,-0.0336,-0.0335,-0.0337,-0.0346,-0.0357,-0.0354,-0.0351,-0.034,-0.0332,-0.0324,-0.0307,-0.0297,-0.0299,-0.0283,-0.0282,-0.0217,-0.0207,-0.0288,-0.0285,-0.0285,-0.0284,-0.0284,0,-0.0366,-0.0372,-0.0373,-0.0348,-0.0343,-0.0333,-0.0336,-0.033,-0.035,-0.0353,-0.0365,-0.0373,-0.0369,-0.0352,-0.0331,-0.0334,-0.0316,-0.0294,-0.0293,-0.0226,-0.0212,-0.0276,-0.0284,-0.0284,-0.0284,-0.0284,-0.0284,0,-0.0382,-0.0364,-0.0372,-0.0368,-0.0353,-0.0347,-0.0331,-0.034,-0.0334,-0.036,-0.0357,-0.0375,-0.0365,-0.0358,-0.0329,-0.0333,-0.0297,-0.03,-0.0221,-0.0217,-0.0278,-0.0278,-0.028,-0.028,-0.028,-0.028,-0.028,0,-0.0377,-0.0375,-0.0382,-0.0386,-0.0381,-0.0359,-0.0353,-0.0342,-0.0339,-0.0327,-0.0357,-0.0339,-0.0361,-0.0352,-0.034,-0.0275,-0.031,-0.0217,-0.0205,-0.0282,-0.0282,-0.0278,-0.0278,-0.028,-0.028,-0.028,-0.028,0,-0.0384,-0.0391,-0.0397,-0.0395,-0.0391,-0.0389,-0.0351,-0.0346,-0.0328,-0.0318,-0.032,-0.0316,-0.0275,-0.0288,-0.0265,-0.0258,-0.0221,-0.0188,-0.0273,-0.0267,-0.015,-0.015,-0.0112,-0.0109,-0.0107,-0.0105,-0.0104,0,-0.0387,-0.0402,-0.0416,-0.0421,-0.0417,-0.0409,-0.0398,-0.036,-0.0344,-0.0283,-0.0273,-0.0235,-0.0231,-0.0159,-0.0165,-0.0145,-0.0128,-0.0139,-0.0141,-0.0138,-0.013,-0.0134,-0.0137,-0.01,-0.01,-0.0099,-0.0099,0,-0.0403,-0.0417,-0.0425,-0.0443,-0.0439,-0.0416,-0.0388,-0.0367,-0.0309,-0.0305,-0.0214,-0.0177,-0.0122,-0.0105,-0.0085,-0.0069,-0.0157,-0.0117,-0.0121,-0.0123,-0.0123,-0.0119,-0.0125,-0.0091,-0.0092,-0.0093,-0.0093,0,-0.0416,-0.0431,-0.0448,-0.0446,-0.044,-0.0398,-0.0388,-0.0331,-0.0294,-0.0222,-0.019,-0.0128,-0.0114,-0.006,-0.0041,-0.0021,-0.0012,-0.0035,-0.0044,-0.0053,-0.003,-0.0021,0.006,0,0,0,0,0,-0.0425,-0.0434,-0.0441,-0.0421,-0.0404,-0.0387,-0.0361,-0.0346,-0.0303,-0.0233,-0.0199,-0.0138,-0.0057,-0.003,0.0008,-0.0005,-0.0024,0.0038,-0.0061,-0.0049,-0.0058,-0.0033,0,0,0,0,0,0,-0.0431,-0.0451,-0.0444,-0.0389,-0.0359,-0.0323,-0.0302,-0.0276,-0.0231,-0.0195,-0.0154,-0.0129,-0.0062,-0.0069,0.0013,0.0021,-0.0038,0.007,0.007,-0.0044,-0.0052,-0.0059,-0.0037,0,0,0,0,0]},{"header":{"parameterUnit":"m.s-1","parameterCategory":2,"la1":30.2991,"la2":30.254,"lo1":-89.0895,"lo2":-89.0444,"dy":0.0017,"dx":0.0017,"nx":28,"ny":28,"refTime":"2023-06-21T21:00:00:Z","depth":"4","parameterNumber":3,"parameterNumberName":"V-component_of_CURRENTS"},"data":[0,0,0,0,0,0,0,0,0,0,0,0,0,0,0,0,0,0,0,0,0,0,0,0,0,0,0,0,0,0,0,0,0,0,0,0,0,0,0,0,0,0,0,0,0,0,0,0,0,0,0,0,0,0,0,0,0,0,-0.0315,-0.0315,0,-0.032,-0.032,-0.032,-0.0338,-0.0338,-0.0338,-0.0338,-0.0344,-0.0344,-0.0344,0,0,0,0,0,0,0,0,0,0,0,0,0,-0.0355,-0.0354,-0.0315,-0.0315,-0.0315,-0.032,-0.032,-0.0321,-0.0338,-0.0338,-0.0338,-0.0339,-0.0344,-0.0344,-0.0344,0,0,0,0,0,0,0,0,0,0,0,0,0,-0.0349,-0.0354,-0.0316,-0.0323,-0.0323,-0.032,-0.032,-0.0321,-0.0338,-0.0338,-0.0338,-0.0339,-0.0344,-0.0344,-0.0344,-0.0337,0,0,-0.0343,-0.0343,0,0,0,0,0,0,0,0,-0.0349,-0.0348,-0.0322,-0.0322,-0.0323,-0.0327,-0.0336,-0.0325,-0.0338,-0.0335,-0.0338,-0.0339,-0.0336,-0.0337,-0.034,-0.0337,-0.0338,-0.0343,-0.0343,-0.0343,-0.0343,0,0,0,0,0,0,0,-0.0349,-0.0348,-0.032,-0.0322,-0.0322,-0.0337,-0.0336,-0.0334,-0.0336,-0.0335,-0.0336,-0.0333,-0.0337,-0.034,-0.034,-0.0338,-0.0343,-0.0343,-0.0343,-0.0343,-0.0411,-0.0413,0,0,0,0,0,0,-0.0342,-0.0348,-0.0319,-0.0319,-0.0334,-0.0336,-0.0335,-0.0327,-0.0336,-0.0336,-0.0332,-0.0333,-0.034,-0.0341,-0.0341,-0.038,-0.0343,-0.0343,-0.0343,-0.0409,-0.0412,-0.0414,0,0,0,0,0,0,-0.0343,-0.0339,-0.0319,-0.0332,-0.0331,-0.0334,-0.0325,-0.0327,-0.0338,-0.0333,-0.0335,-0.0342,-0.0341,-0.0341,-0.0368,-0.0378,-0.0343,-0.0343,-0.0407,-0.041,-0.0413,-0.0428,0,0,0,0,0,0,-0.0344,-0.0339,-0.0336,-0.0332,-0.0329,-0.0332,-0.0325,-0.0327,-0.0334,-0.0336,-0.0342,-0.0342,-0.0341,-0.0369,-0.0368,-0.0378,-0.0343,-0.0405,-0.0408,-0.0412,-0.0425,-0.0431,-0.0436,0,0,0,0,0,-0.0345,-0.0342,-0.0336,-0.0333,-0.0323,-0.0332,-0.0334,-0.0338,-0.0334,-0.0348,-0.0362,-0.0343,-0.039,-0.037,-0.0369,-0.0378,-0.0403,-0.0407,-0.0411,-0.0423,-0.043,-0.0436,0,0,0,0,0,0,-0.0361,-0.0342,-0.0337,-0.0328,-0.0335,-0.0335,-0.0343,-0.0342,-0.0362,-0.0368,-0.0361,-0.0364,-0.0393,-0.0392,-0.0369,-0.0414,-0.0395,-0.0399,-0.0404,-0.0411,-0.0416,-0.0404,-0.0343,0,0,0,0,0,-0.036,-0.0351,-0.0344,-0.034,-0.0342,-0.0343,-0.0347,-0.0354,-0.0365,-0.0374,-0.038,-0.0394,-0.0408,-0.0414,-0.0429,-0.0446,-0.0426,-0.0457,-0.0462,-0.0467,-0.046,-0.0437,-0.0438,-0.0427,-0.0427,-0.0427,0,0,-0.0364,-0.0353,-0.0348,-0.0342,-0.0346,-0.0363,-0.0347,-0.0363,-0.038,-0.0371,-0.0404,-0.0412,-0.042,-0.0448,-0.046,-0.0447,-0.0465,-0.0472,-0.0475,-0.0466,-0.0441,-0.0442,-0.0442,-0.043,-0.043,-0.0429,0,0,-0.0377,-0.036,-0.0363,-0.0372,-0.038,-0.0383,-0.0388,-0.0399,-0.0409,-0.0438,-0.044,-0.0454,-0.0478,-0.0483,-0.0486,-0.0529,-0.0496,-0.0543,-0.0552,-0.053,-0.0529,-0.0529,-0.0517,-0.0515,-0.0542,-0.0542,-0.0542,0,-0.0387,-0.0381,-0.037,-0.0385,-0.0392,-0.0393,-0.0413,-0.0425,-0.0448,-0.0455,-0.0457,-0.0487,-0.049,-0.0507,-0.0529,-0.0536,-0.0524,-0.052,-0.0532,-0.0531,-0.053,-0.0518,-0.0515,-0.0544,-0.0544,-0.0543,-0.0543,0,-0.0414,-0.0408,-0.0415,-0.0427,-0.044,-0.0457,-0.0469,-0.049,-0.0496,-0.0502,-0.0524,-0.053,-0.0543,-0.055,-0.055,-0.0554,-0.055,-0.0539,-0.0504,-0.0531,-0.0518,-0.0515,-0.0545,-0.0545,-0.0545,-0.0544,0,0,-0.044,-0.0431,-0.0435,-0.0432,-0.0461,-0.0468,-0.0506,-0.0524,-0.0531,-0.0556,-0.0564,-0.0584,-0.0576,-0.0581,-0.0579,-0.056,-0.0545,-0.0549,-0.0548,-0.0518,-0.0505,-0.0498,-0.0494,-0.0533,-0.0532,-0.0532,-0.0502,0,-0.0465,-0.0477,-0.0475,-0.0493,-0.0501,-0.0512,-0.0532,-0.0554,-0.057,-0.0584,-0.0584,-0.0595,-0.0591,-0.0593,-0.0577,-0.0565,-0.0537,-0.0555,-0.0501,-0.0499,-0.0473,-0.049,-0.053,-0.05,-0.0499,-0.0498,-0.0498,0,-0.0503,-0.0498,-0.0515,-0.0496,-0.05,-0.0522,-0.0542,-0.0555,-0.0581,-0.059,-0.0607,-0.0613,-0.0619,-0.0595,-0.0568,-0.0583,-0.0542,-0.0516,-0.0514,-0.0495,-0.0487,-0.0467,-0.0492,-0.0493,-0.0493,-0.0493,-0.0494,0,-0.0524,-0.0522,-0.0524,-0.0529,-0.0526,-0.0538,-0.054,-0.0566,-0.0557,-0.0598,-0.059,-0.062,-0.0611,-0.0589,-0.0563,-0.0564,-0.0515,-0.0507,-0.0454,-0.0454,-0.0458,-0.0459,-0.0448,-0.0448,-0.0448,-0.0448,-0.0449,0,-0.0543,-0.0546,-0.0531,-0.0535,-0.0534,-0.0536,-0.0539,-0.0552,-0.0554,-0.0539,-0.058,-0.0562,-0.0601,-0.0588,-0.0567,-0.0516,-0.0518,-0.0454,-0.0442,-0.0471,-0.0473,-0.0456,-0.0457,-0.0447,-0.0448,-0.0448,-0.0448,0,-0.0558,-0.0554,-0.0549,-0.054,-0.0543,-0.054,-0.0523,-0.0515,-0.0515,-0.0502,-0.051,-0.0521,-0.052,-0.0544,-0.0517,-0.0501,-0.0467,-0.0431,-0.0475,-0.0467,-0.042,-0.0423,-0.0384,-0.0384,-0.0383,-0.0383,-0.0383,0,-0.0558,-0.056,-0.055,-0.0543,-0.0541,-0.0536,-0.0529,-0.0517,-0.0505,-0.0459,-0.0444,-0.0443,-0.0462,-0.0431,-0.0454,-0.0449,-0.0421,-0.0413,-0.0405,-0.0419,-0.0412,-0.0416,-0.0419,-0.0382,-0.0382,-0.0382,-0.0382,0,-0.0547,-0.0551,-0.0536,-0.0536,-0.0531,-0.0514,-0.0504,-0.049,-0.0463,-0.0444,-0.0395,-0.039,-0.0381,-0.0412,-0.042,-0.0397,-0.0445,-0.0408,-0.0408,-0.04,-0.0416,-0.041,-0.0414,-0.038,-0.038,-0.038,-0.038,0,-0.0528,-0.0521,-0.0512,-0.0509,-0.0506,-0.0504,-0.0498,-0.047,-0.0446,-0.0401,-0.038,-0.0367,-0.0377,-0.0377,-0.037,-0.0388,-0.037,-0.036,-0.0363,-0.0364,-0.0374,-0.0393,-0.0335,0,0,0,0,0,-0.0498,-0.0495,-0.0484,-0.0485,-0.0488,-0.0499,-0.0479,-0.047,-0.0448,-0.0411,-0.0396,-0.0387,-0.0372,-0.0356,-0.037,-0.0363,-0.0386,-0.0377,-0.0381,-0.0371,-0.0373,-0.0388,0,0,0,0,0,0,-0.0477,-0.0471,-0.0475,-0.0474,-0.0484,-0.049,-0.0489,-0.0474,-0.0454,-0.0425,-0.0423,-0.0382,-0.0384,-0.0381,-0.0372,-0.0371,-0.037,-0.0366,-0.0365,-0.037,-0.0372,-0.0373,-0.0389,0,0,0,0,0]}]]